Location: Chełmno
(53.3480°N, 18.4232°E)
Time: 05:26:55
(UTC+02:00)

ISS - Visible Passes

Search period start: 28 May 2018 00:00
Search period end: 07 June 2018 00:00
Orbit: 402 x 407 km, 51.6° (Epoch: 28 May)

Date Brightness Start Highest point End Pass type
(mag) Time Alt. Az. Time Alt. Az. Time Alt. Az.
28 May -1.6 01:07:38 10° W 01:08:21 13° WSW 01:08:21 13° WSW visible
28 May -3.8 22:38:35 10° W 22:41:49 60° S 22:45:03 10° ESE visible
29 May -2.6 00:15:10 10° W 00:17:42 26° SW 00:17:42 26° SW visible
29 May -3.8 21:46:23 10° W 21:49:38 65° S 21:52:53 10° E visible
29 May -3.1 23:22:50 10° W 23:25:53 36° SSW 23:27:05 26° SSE visible
30 May -3.5 22:30:34 10° W 22:33:44 47° SSW 22:36:31 13° ESE visible
31 May -1.8 00:07:35 10° WSW 00:09:08 16° SW 00:09:08 16° SW visible
31 May -2.4 23:14:59 10° W 23:17:40 23° SSW 23:18:34 20° S visible
01 Jun -2.9 22:22:35 10° W 22:25:33 32° SSW 22:28:02 13° SE visible
02 Jun -1.7 23:07:28 10° WSW 23:09:17 14° SW 23:10:09 13° SSW visible
03 Jun -2.1 22:14:42 10° W 22:17:14 21° SSW 22:19:40 10° SSE visible
05 Jun -1.4 22:07:22 10° WSW 22:08:45 12° SW 22:10:08 10° SSW visible
